Wind_Speed
6 8 16 21 22 26 18 20 18 16 13 14 14 15 15 17 17 16 16 13 13 16 10 8 16 11 12 7 6 4 3 4 6
4 7 9 15 18 18 23 22 21 18 15 14 14 14 15 17 18 18 16 15 12 14 15 13 17 12 12 10 9 7 6 6 5
5 5 9 12 15 20 23 22 23 20 18 15 14 15 15 16 18 17 16 16 20 15 12 11 12 13 11 11 10 9 8 7 8
5 6 9 11 10 14 22 25 23 22 21 19 19 16 17 17 17 17 17 18 17 17 18 17 17 14 12 10 10 10 9 10 10
1 3 3 6 9 10 15 25 27 25 25 21 20 19 18 17 16 17 19 19 18 18 17 16 15 14 13 12 11 12 11 12 12
4 4 3 4 3 12 15 23 32 36 27 23 21 22 21 20 19 18 18 18 19 19 20 19 18 18 16 16 16 13 13 14 13
5 5 6 5 5 5 6 13 26 35 38 34 28 24 22 24 22 21 19 17 18 19 21 20 20 19 18 18 18 17 16 16 16
6 4 2 4 7 5 5 6 13 27 34 38 37 33 30 28 25 24 23 22 22 20 21 20 20 21 20 19 20 19 20 18 16
7 6 3 4 7 11 10 10 10 12 31 40 41 38 35 32 29 29 26 26 25 23 22 21 21 21 22 22 22 23 22 22 21
9 6 1 6 8 10 11 12 11 10 13 32 39 40 38 38 36 34 32 30 29 27 25 25 23 22 22 21 22 24 24 23 25
9 4 4 7 11 13 12 10 13 10 8 13 31 41 38 39 40 39 39 37 36 33 30 29 27 26 24 23 23 21 20 23 26
9 8 8 11 13 16 16 11 12 15 10 8 11 22 33 38 41 41 42 43 43 39 38 34 34 31 29 27 27 24 22 22 25
11 10 12 15 18 19 17 14 12 16 19 15 9 11 14 29 38 39 40 42 44 42 39 37 38 36 36 34 32 28 27 25 25
11 12 15 17 20 19 14 13 15 15 17 21 18 15 12 9 18 31 33 36 40 39 38 39 38 36 36 39 40 39 36 33 30
14 16 18 19 21 17 15 15 16 15 16 17 22 21 17 12 8 8 9 27 29 32 34 37 39 41 44 43 42 40 37 35 32
16 17 19 18 18 19 17 15 15 16 16 16 17 22 21 18 16 15 17 12 14 19 23 35 37 37 39 38 37 32 43 44 40
9 15 18 17 16 17 17 14 15 16 16 16 16 16 21 21 18 14 13 16 22 25 28 27 27 29 31 35 37 35 37 38 35
11 14 17 18 21 21 20 15 14 16 17 16 16 17 16 17 16 12 8 6 2 6 12 15 18 17 20 25 28 26 25 20 20
17 19 23 23 23 24 23 17 15 16 17 17 16 17 18 20 19 13 11 6 5 6 8 7 5 6 9 7 11 12 11 10 9
23 24 26 26 24 26 24 24 26 16 17 16 16 16 18 21 23 22 17 11 7 8 9 7 5 4 5 5 9 7 6 9 7
Wind_Direction
217 213 224 220 214 221 209 223 229 218 233 232 231 225 218 212 210 205 206 199 189 199 140 218 242 219 207 210 208 215 219 216 243
188 196 199 212 223 225 216 224 226 222 233 226 234 234 223 219 216 216 212 202 220 194 199 195 239 217 203 211 226 234 236 255 261
232 236 241 213 220 221 216 221 223 227 226 225 224 236 230 221 222 221 222 213 210 212 200 218 238 227 217 219 220 235 246 261 271
231 261 240 241 236 228 217 222 215 226 226 222 221 227 234 228 224 227 229 230 219 220 215 224 216 220 223 222 226 236 249 257 267
273 31 282 266 252 228 209 208 216 212 220 223 225 223 229 237 238 233 235 235 233 230 227 230 232 232 236 232 231 245 241 249 256
217 275 303 325 281 254 245 219 206 207 203 209 223 228 227 227 237 237 235 239 237 239 237 236 239 242 242 240 240 246 245 247 256
210 252 279 277 302 348 258 239 231 220 221 222 206 220 231 233 234 241 240 239 241 242 243 241 242 245 247 248 251 252 254 258 269
204 216 216 266 286 284 281 268 249 227 230 230 232 231 221 232 230 235 236 243 246 245 247 246 248 251 252 250 254 260 261 268 273
195 192 227 297 301 289 277 270 264 256 238 231 235 233 231 233 235 235 238 244 247 249 251 251 248 252 256 260 260 261 264 270 271
183 185 345 347 337 336 304 272 254 275 260 235 230 230 231 232 236 237 240 246 247 253 255 257 257 257 257 260 263 266 268 265 268
197 219 306 329 333 331 329 295 264 271 279 260 234 233 241 238 237 241 243 244 248 251 251 253 258 264 259 262 265 272 273 264 262
195 251 291 314 325 322 314 299 267 257 270 267 268 253 249 245 242 244 246 249 248 250 251 254 257 258 257 258 262 265 271 267 261
237 262 293 312 320 319 303 288 272 251 250 259 264 284 274 251 244 246 250 247 246 247 250 251 251 254 256 261 265 263 264 268 266
250 275 297 311 317 314 302 295 279 270 255 252 254 267 287 321 242 245 248 248 244 243 248 251 252 253 257 260 266 265 266 264 261
272 285 297 308 310 306 302 298 286 273 264 258 254 257 269 279 281 301 318 239 228 233 244 250 254 257 258 257 255 255 254 257 256
274 291 301 300 301 302 302 298 288 278 273 259 257 253 256 265 270 268 256 261 276 271 262 258 252 253 253 248 257 254 247 249 250
259 287 294 296 298 306 313 302 289 282 276 271 258 253 251 255 265 273 261 256 263 259 254 254 254 253 251 247 242 244 246 251 261
261 283 298 299 302 309 315 306 289 282 272 271 263 251 246 240 245 251 237 239 275 278 254 241 233 240 242 236 240 236 242 242 248
290 284 295 296 293 296 306 302 300 281 271 263 264 249 237 234 233 223 186 169 146 80 67 76 188 194 198 196 181 171 178 185 187
286 283 286 289 286 290 294 296 296 278 269 258 262 251 243 232 235 219 226 230 225 242 233 237 262 188 169 154 165 148 171 161 171
Height
3169 3170 3172 3175 3174 3179 3181 3182 3184 3185 3184 3187 3188 3190 3191 3193 3195 3197 3199 3201 3203 3206 3207 3212 3210 3211 3212 3214 3215 3216 3217 3217 3219
3168 3168 3170 3172 3173 3172 3178 3180 3181 3182 3182 3184 3186 3188 3189 3191 3193 3195 3196 3198 3201 3203 3205 3208 3207 3209 3210 3212 3213 3214 3215 3216 3217
3165 3164 3164 3166 3169 3172 3173 3176 3179 3180 3181 3182 3184 3187 3188 3189 3191 3193 3194 3196 3198 3200 3201 3205 3198 3205 3207 3208 3210 3212 3213 3214 3215
3163 3161 3161 3161 3162 3166 3170 3173 3172 3177 3179 3180 3181 3184 3187 3188 3190 3191 3192 3193 3195 3197 3200 3201 3204 3204 3204 3206 3208 3209 3211 3212 3213
3159 3158 3158 3158 3158 3161 3163 3167 3171 3174 3172 3179 3180 3181 3183 3186 3187 3189 3190 3192 3193 3195 3197 3199 3200 3202 3202 3204 3205 3207 3208 3210 3210
3158 3157 3157 3156 3156 3155 3157 3160 3163 3164 3164 3172 3179 3179 3180 3182 3184 3186 3188 3189 3191 3193 3194 3196 3197 3198 3199 3201 3202 3204 3205 3207 3208
3158 3155 3155 3155 3154 3153 3153 3154 3157 3161 3165 3168 3171 3173 3177 3179 3181 3183 3184 3186 3187 3188 3191 3193 3194 3195 3196 3199 3201 3202 3203 3204 3206
3155 3155 3154 3154 3152 3152 3152 3153 3154 3156 3159 3162 3166 3169 3171 3174 3176 3178 3180 3181 3183 3184 3186 3188 3190 3192 3193 3195 3196 3198 3199 3201 3202
3153 3153 3153 3152 3151 3150 3150 3150 3150 3151 3152 3155 3159 3163 3166 3168 3170 3173 3175 3177 3178 3181 3182 3184 3185 3187 3189 3190 3192 3193 3194 3196 3198
3150 3151 3150 3150 3149 3148 3146 3146 3146 3146 3146 3147 3151 3156 3159 3161 3163 3167 3169 3172 3174 3176 3177 3178 3180 3182 3184 3186 3187 3188 3189 3191 3191
3147 3148 3148 3148 3147 3146 3144 3142 3142 3142 3141 3141 3141 3147 3151 3153 3156 3159 3162 3164 3166 3169 3171 3173 3175 3177 3179 3180 3182 3183 3184 3184 3185
3144 3144 3145 3145 3144 3144 3142 3141 3139 3139 3139 3139 3140 3140 3142 3144 3147 3150 3153 3156 3159 3162 3164 3166 3168 3170 3172 3174 3175 3177 3178 3178 3178
3140 3141 3141 3141 3140 3140 3138 3137 3137 3136 3136 3137 3137 3138 3137 3136 3138 3141 3144 3147 3150 3153 3156 3158 3159 3161 3163 3166 3167 3170 3171 3171 3171
3137 3138 3138 3137 3136 3135 3134 3133 3132 3132 3132 3132 3133 3133 3134 3131 3132 3134 3135 3137 3141 3144 3146 3148 3149 3152 3155 3156 3159 3161 3162 3163 3163
3133 3134 3134 3133 3132 3131 3130 3129 3128 3127 3127 3128 3129 3128 3129 3130 3129 3129 3129 3128 3131 3134 3136 3138 3140 3142 3144 3146 3147 3150 3152 3154 3154
3130 3129 3129 3129 3128 3127 3126 3124 3124 3123 3123 3123 3124 3124 3125 3126 3126 3126 3126 3126 3126 3126 3126 3129 3130 3131 3133 3136 3138 3139 3140 3143 3145
3126 3126 3126 3126 3125 3123 3122 3120 3119 3119 3119 3119 3119 3119 3121 3122 3122 3122 3122 3122 3120 3119 3120 3120 3120 3121 3123 3125 3128 3131 3133 3136 3136
3124 3123 3122 3122 3120 3119 3118 3117 3116 3115 3115 3115 3115 3116 3117 3118 3119 3120 3119 3117 3116 3115 3114 3114 3113 3114 3113 3115 3118 3121 3124 3126 3127
3120 3119 3118 3118 3117 3115 3114 3113 3112 3111 3111 3111 3111 3111 3112 3114 3116 3117 3117 3117 3116 3115 3116 3115 3114 3113 3113 3114 3116 3119 3122 3124 3125
3114 3115 3113 3112 3112 3111 3109 3108 3105 3107 3106 3107 3107 3107 3108 3109 3111 3113 3114 3115 3114 3114 3116 3116 3116 3117 3117 3118 3118 3120 3123 3124 3125